Location: Eschentzwiller
(47.7125°N, 7.3981°E)
Time: 04:33:50
(UTC+00:00)

CZ-4C R/B - Pass Details

Date: 27 October 2020
Orbit: 624 x 1378 km, 63.4° (Epoch: 01 December)

Event Time Altitude Azimuth Distance (km) Brightness Sun altitude
Rises 17:32:15 0° 310° (NW) 3,531 6.1 -12.7°
Reaches altitude 10° 17:35:11 10° 325° (NW) 2,716 5.2 -13.2°
Maximum altitude 17:40:18 24° 17° (NNE) 2,091 4.0 -14.0°
Enters shadow 17:44:25 15° 58° (ENE) 2,705 4.3 -14.7°
